Home   Weather   Harstad   Past weeks

Flag for Norway Past Weather in Harstad, Norway — Yesterday and Last 2 Weeks

Now
46 °F

Clear.


Feels Like: 46 °F
Forecast: 47 / 51 °F
Wind: 2 mph from North

Location: Evenes

Current Time: Sep 27, 2016 at 10:54:53 PM

Latest Report: Sep 27, 2016 at 9:50 PM


Visibility: 10 mi

Pressure: 29.74 "Hg

Humidity: 100%

Dew Point: 46 °F

Location of HarstadLocation

Past Weather in Harstad — Graph

°F

Harstad Temperature Yesterday

Maximum temperature yesterday: 64 °F (at 1:50 PM)
Minimum temperature yesterday: 52 °F (at 12:50 AM)
Average temperature yesterday: 56 °F

High & Low Weather Summary for the Past Weeks

 TemperatureHumidityPressure
High64 °F (Sep 26, 1:50 PM)100% (Sep 13, 2:50 AM)30.24 "Hg (Sep 13, 2:50 AM)
Low34 °F (Sep 16, 3:50 AM)49% (Sep 26, 2:50 PM)29.77 "Hg (Sep 27, 8:50 PM)
Average52 °F85%30.08 "Hg
* Reported Sep 12 8:50 PM — Sep 27 8:50 PM, Harstad, Weather by CustomWeather, © 2016

Note: Actual official high and low records may vary slightly from our data, if they occured in-between our weather recording intervals... More about our weather records

Advertising

Harstad Weather History for the Previous 24 Hours

Scroll right to see more
 ConditionsComfort  
Time TempWeatherWind HumidityBarometerVisibility
8:50 PM
Tue, Sep 27
48 °FPassing clouds.5 mph94%29.77 "HgN/A
7:50 PM50 °FSprinkles. Partly cloudy.3 mph94%29.80 "HgN/A
6:50 PM50 °FRain. Partly cloudy.8 mph94%29.86 "HgN/A
5:50 PM54 °FScattered showers. Broken clouds.3 mph82%29.86 "HgN/A
4:50 PM54 °FScattered showers. Partly sunny.No wind82%29.89 "HgN/A
3:50 PM54 °FScattered clouds.No wind82%29.92 "HgN/A
2:50 PM54 °FSunny.2 mph77%29.95 "Hg10 mi
1:50 PM54 °FSunny.No wind82%29.98 "Hg10 mi
12:50 PM54 °FSunny.5 mph82%30.01 "Hg10 mi
11:50 AM54 °FSunny.2 mph82%30.04 "Hg10 mi
10:50 AM54 °FSunny.6 mph82%30.07 "Hg10 mi
9:50 AM50 °FScattered clouds.7 mph100%30.07 "HgN/A
8:50 AM50 °FScattered clouds.8 mph94%30.09 "HgN/A
7:50 AM48 °FScattered clouds.7 mph94%30.09 "HgN/A
6:50 AM48 °FFog.5 mph94%30.12 "HgN/A
5:50 AM46 °FPassing clouds.5 mph100%30.12 "HgN/A
4:50 AM46 °FCool.2 mph93%30.12 "HgN/A
3:50 AM46 °FCool.1 mph100%30.15 "HgN/A
2:50 AM48 °FPassing clouds.2 mph94%30.15 "HgN/A
1:50 AM52 °FPassing clouds.5 mph88%30.15 "HgN/A
12:50 AM52 °FPassing clouds.3 mph88%30.15 "HgN/A
11:50 PM
Mon, Sep 26
52 °FPassing clouds.5 mph88%30.15 "HgN/A
10:50 PM52 °FPassing clouds.8 mph88%30.12 "HgN/A
Weather by CustomWeather, © 2016

See weather overviewHow to use our weather pages